Location: Unspecified
(61.6667°N, 50.8167°E)
Time: 22:55:17
(UTC+01:00)

ISS - All Passes

Search period start: 17 January 2018 00:00
Search period end: 27 January 2018 00:00
Orbit: 402 x 407 km, 51.6° (Epoch: 17 January)

Date Brightness Start Highest point End Pass type
(mag) Time Alt. Az. Time Alt. Az. Time Alt. Az.
17 Jan - 00:31:24 10° SW 00:32:55 13° SSW 00:34:24 10° SSE night (unlit)
17 Jan - 22:03:39 10° SSW 22:05:20 13° SSE 22:07:03 10° SE night (unlit)
17 Jan - 23:39:06 10° SW 23:40:54 14° S 23:42:43 10° SSE night (unlit)
18 Jan - 21:12:04 10° S 21:13:20 12° SSE 21:14:36 10° SE night (unlit)
18 Jan - 22:46:56 10° SW 22:48:52 15° S 22:50:48 10° SSE night (unlit)
19 Jan - 21:54:54 10° SSW 21:56:49 15° S 21:58:45 10° SE night (unlit)
19 Jan - 23:31:03 10° SW 23:32:22 12° SSW 23:33:41 10° S night (unlit)
20 Jan - 21:02:59 10° SSW 21:04:46 14° S 21:06:33 10° SE night (unlit)
20 Jan - 22:38:37 10° SW 22:40:20 14° S 22:42:03 10° SSE night (unlit)
21 Jan - 20:11:16 10° SSW 20:12:43 12° SSE 20:14:10 10° SE night (unlit)
21 Jan - 21:46:22 10° SW 21:48:16 15° S 21:50:10 10° SSE night (unlit)
22 Jan - 19:20:02 10° S 19:20:40 10° SSE 19:21:19 10° SSE night (unlit)
22 Jan - 20:54:15 10° SW 20:56:11 15° S 20:58:07 10° SE night (unlit)
22 Jan - 22:30:38 10° SW 22:31:42 11° SSW 22:32:47 10° S night (unlit)
23 Jan - 20:02:14 10° SSW 20:04:05 14° S 20:05:56 10° SE night (unlit)
23 Jan - 21:38:02 10° SW 21:39:39 13° SSW 21:41:15 10° SSE night (unlit)
24 Jan - 19:10:25 10° SSW 19:12:00 13° SSE 19:13:35 10° SE night (unlit)
24 Jan - 20:45:42 10° SW 20:47:33 14° S 20:49:24 10° SSE night (unlit)
25 Jan - 18:18:53 10° S 18:19:54 11° SSE 18:20:56 10° SE night (unlit)
25 Jan - 19:53:29 10° SW 19:55:26 15° S 19:57:22 10° SE night (unlit)
25 Jan - 21:30:14 10° SSW 21:30:56 11° SSW 21:31:38 10° S night (unlit)
26 Jan - 19:01:24 10° SSW 19:03:18 15° S 19:05:11 10° SE night (unlit)
26 Jan - 20:37:22 10° SW 20:38:50 12° SSW 20:40:18 10° SSE night (unlit)
